Weather in Novoselovka

Ukraine / Odesa District     45°40′39″N   29°15′49″E
temp.,
°C
wind,
m/s
gust,
m/s
humid.,
%
clouds,
%
prec.,
mm/h
press.,
hPa
HPBL,
m
22 april, thu
thu2200:00+9ssw35835 0.0 101868
03:00+8s33857 0.3 101838
06:00+8ssw22845 0.1 101916
09:00+13ssw34630 0.1 1019376
12:00+18sw55460 0.0 10191598
15:00+19wsw673921 0.0 10192294
18:00+18ssw784716 0.0 10181175
21:00+12s6126337 0.0 1019289
23 april, fri
fri2300:00+10s4979100 0.0 1018186
03:00+10s4885100 0.0 1017144
06:00+10ssw358434 0.0 101787
09:00+14ssw3465100 0.0 1017276
12:00+16w4457100 0.2 10171094
15:00+13w4971100 1.0 1017908
18:00+11nnw101080100 1.1 1017775
21:00+7n489077 4.3 1020353
24 april, sat
sat2400:00+5nnw47920 0.0 1021213
03:00+5nw34880 0.0 102170
06:00+5nw33850 0.0 102132
09:00+10nw34605 0.0 1022430
12:00+13nw5547100 0.1 10222033
15:00+12nnw56505 0.1 10231076
18:00+13nnw454267 0.0 10231854
21:00+8nne344988 0.0 102460
25 april, sun
sun2500:00+6se225383 0.0 102520
03:00+6sse227410 0.0 102415
06:00+6sse227310 0.0 102348
09:00+11s355491 0.0 1023616
12:00+14ssw454193 0.0 10221576
15:00+14ssw4545100 0.0 10201719
18:00+14ssw455094 0.0 10191108
21:00+9sw3760100 0.1 1020188
26 april, mon
mon2600:00+7ssw5884100 1.8 1021304
03:00+7n5788100 2.6 1021572
06:00+6nne37865 0.4 1021302
09:00+9n35520 0.4 1022738
12:00+12nnw33385 0.0 10221577
15:00+14w343680 0.0 10202274
18:00+14wsw3338100 0.0 10191983
21:00+10s5960100 0.0 1020336